Hourly Data Report for June 15, 2021

TOBERMORY RCS
ONTARIO
Current Station Operator: ECCC - MSC

45°14'00.000" N
81°38'00.000" W
213.50 m
6128330
71767
TTR

Download Data

Hourly Data (June 2021)
Hourly Data Report for June 15, 2021
TIME
LST
Temp Definition
°C
Dew Point Definition
°C
Rel Hum Definition
%
Precip. Amount Definition
mm

Wind Dir Definition
10's deg

Wind Spd Definition
km/h
Visibility Definition
km
Stn Press Definition
kPa
Hmdx Definition


Wind Chill Definition


Weather Definition


00:00 15.1 11.2 77 0.0 35 7   98.75     LegendNANA
01:00 15.5 10.3 71 0.0 35 13   98.79     LegendNANA
02:00 14.6 9.1 69 0.0 35 11   98.77     LegendNANA
03:00 14.0 9.1 73 0.0 36 11   98.80     LegendNANA
04:00 13.2 9.6 79 0.0 36 10   98.84     LegendNANA
05:00 13.9 8.0 67 0.0 36 12   98.90     LegendNANA
06:00 13.6 5.6 59 0.0 1 13   98.98     LegendNANA
07:00 13.7 2.9 48 0.0 1 17   99.07     LegendNANA
08:00 13.7 2.5 46 0.0 1 18   99.12     LegendNANA
09:00 13.9 2.4 46 0.0 36 21   99.11     LegendNANA
10:00 15.1 3.3 45 0.0 1 20   99.11     LegendNANA
11:00 16.3 3.4 42 0.0 2 15   99.14     LegendNANA
12:00 16.6 2.8 40 0.0 36 15   99.13     LegendNANA
13:00 17.4 3.5 40 0.0 33 14   99.14     LegendNANA
14:00 18.7 7.5 48 0.0 30 14   99.11     LegendNANA
15:00 19.2 9.2 52 0.0 28 15   99.10     LegendNANA
16:00 18.9 6.0 43 0.0 35 11   99.12     LegendNANA
17:00 18.2 7.8 50 0.0 29 13   99.12     LegendNANA
18:00 17.0 8.2 56 0.0 30 12   99.11     LegendNANA
19:00 16.1 8.8 62 0.0 30 5   99.12     LegendNANA
20:00 14.2 8.0 66 0.0 35 3   99.14     LegendNANA
21:00 14.7 5.5 54 0.0 1 7   99.15     LegendNANA
22:00 14.8 4.0 48 0.0 2 6   99.18     LegendNANA
23:00 13.9 5.3 56 0.0 3 6   99.22     LegendNANA

Notes on Data Quality.

Legend

  • E = Estimated
  • M = Missing
  • NA = Not Available*
  • [empty] = Indicates an unobserved value
Date modified: